FDX724 KCLE-CYMX

Flight info

Callsign FDX724
Flight time 1h 4m
Altitude 33000
Route PFLYD1 PATRC DCT CHAAP DCT SENLU DCT MIGLO Q955 MITIG
Aircraft B77L/H-SDE1E2E3FGHIJ2J3J4J5M1RWXY/LB1D1

Departure

Time 2026-05-07 19:59
Airport Cleveland Hopkins International Airport (KCLE)

Arrival

Time 2026-05-07 21:03
Airport Montreal Mirabel International Airport (CYMX)
Time Latitude Longitude Altitude Speed Heading
2026-05-07 19:44 41.40328 -81.84428 804 ft 0 kts 268°
2026-05-07 19:53 41.40328 -81.84423 804 ft 2 kts 268°
2026-05-07 19:53 41.40328 -81.84405 805 ft 2 kts 268°
2026-05-07 19:53 41.40327 -81.84387 805 ft 2 kts 296°
2026-05-07 19:54 41.40320 -81.84372 806 ft 2 kts 325°
2026-05-07 19:54 41.40309 -81.84363 805 ft 2 kts 354°
2026-05-07 19:54 41.40307 -81.84363 805 ft 0 kts 358°
2026-05-07 19:55 41.40313 -81.84363 806 ft 3 kts 358°
2026-05-07 19:55 41.40397 -81.84367 805 ft 21 kts 358°
2026-05-07 19:55 41.40574 -81.84374 803 ft 22 kts 351°
2026-05-07 19:55 41.40686 -81.84433 802 ft 18 kts 358°
2026-05-07 19:56 41.40813 -81.84437 802 ft 18 kts 358°
2026-05-07 19:56 41.40917 -81.84520 803 ft 18 kts 320°
2026-05-07 19:56 41.41014 -81.84627 802 ft 18 kts 320°
2026-05-07 19:56 41.41120 -81.84628 802 ft 18 kts 47°
2026-05-07 19:57 41.41202 -81.84501 801 ft 18 kts 50°
2026-05-07 19:57 41.41284 -81.84373 801 ft 18 kts 49°
2026-05-07 19:57 41.41366 -81.84245 801 ft 18 kts 50°
2026-05-07 19:57 41.41449 -81.84142 803 ft 11 kts
2026-05-07 19:58 41.41500 -81.84203 802 ft 10 kts 294°
2026-05-07 19:58 41.41480 -81.84291 800 ft 11 kts 232°
2026-05-07 19:58 41.41308 -81.84574 799 ft 91 kts 230°
2026-05-07 19:58 41.40643 -81.85612 815 ft 197 kts 232°
2026-05-07 19:59 41.39680 -81.87107 1692 ft 222 kts 234°
2026-05-07 19:59 41.38717 -81.88634 3442 ft 206 kts 234°
2026-05-07 19:59 41.37810 -81.90111 4932 ft 204 kts 236°
2026-05-07 19:59 41.36952 -81.91676 5637 ft 215 kts 246°
2026-05-07 20:00 41.36631 -81.92962 5982 ft 229 kts 264°
2026-05-07 20:00 41.36810 -81.95148 5983 ft 243 kts 290°
2026-05-07 20:00 41.37493 -81.97217 6000 ft 248 kts 292°
2026-05-07 20:00 41.38399 -82.00034 6003 ft 250 kts 292°
2026-05-07 20:01 41.38857 -82.01469 6002 ft 250 kts 292°
2026-05-07 20:01 41.39756 -82.04290 6029 ft 249 kts 292°
2026-05-07 20:01 41.40212 -82.05726 6027 ft 249 kts 292°
2026-05-07 20:01 41.40887 -82.07853 6462 ft 248 kts 291°
2026-05-07 20:02 41.41612 -82.09951 7403 ft 253 kts 300°
2026-05-07 20:02 41.42914 -82.11585 8308 ft 267 kts 328°
2026-05-07 20:02 41.44719 -82.12323 9390 ft 280 kts 351°
2026-05-07 20:02 41.46695 -82.12020 10308 ft 296 kts 14°
2026-05-07 20:03 41.48574 -82.10639 10860 ft 326 kts 35°
2026-05-07 20:03 41.50357 -82.08622 11073 ft 350 kts 33°
2026-05-07 20:03 41.52341 -82.06551 11274 ft 378 kts 39°
2026-05-07 20:03 41.54266 -82.04011 11911 ft 396 kts 43°
2026-05-07 20:04 41.56190 -82.01314 12750 ft 406 kts 43°
2026-05-07 20:04 41.58192 -81.98595 13693 ft 414 kts 41°
2026-05-07 20:04 41.60267 -81.95893 14569 ft 420 kts 40°
2026-05-07 20:04 41.62397 -81.93166 15440 ft 427 kts 40°
2026-05-07 20:05 41.64527 -81.90360 16284 ft 434 kts 42°
2026-05-07 20:05 41.66651 -81.87429 17101 ft 442 kts 43°
2026-05-07 20:05 41.68793 -81.84423 17909 ft 449 kts 43°
2026-05-07 20:05 41.70962 -81.81370 18700 ft 455 kts 43°
2026-05-07 20:06 41.73162 -81.78282 19387 ft 462 kts 43°
2026-05-07 20:06 41.75376 -81.75183 20020 ft 470 kts 42°
2026-05-07 20:06 41.77657 -81.72001 20652 ft 477 kts 42°
2026-05-07 20:06 41.79982 -81.68760 21296 ft 485 kts 42°
2026-05-07 20:07 41.82336 -81.65475 21906 ft 492 kts 42°
2026-05-07 20:07 41.84725 -81.62139 22501 ft 500 kts 41°
2026-05-07 20:07 41.87155 -81.58743 23094 ft 508 kts 41°
2026-05-07 20:07 41.89613 -81.55299 23792 ft 512 kts 42°
2026-05-07 20:08 41.92070 -81.51849 24541 ft 513 kts 42°
2026-05-07 20:08 41.94552 -81.48362 25040 ft 520 kts 41°
2026-05-07 20:08 41.97072 -81.44821 25438 ft 528 kts 41°
2026-05-07 20:08 41.99626 -81.41228 25914 ft 534 kts 41°
2026-05-07 20:09 42.02206 -81.37592 26438 ft 540 kts 41°
2026-05-07 20:09 42.04803 -81.33918 26934 ft 545 kts 41°
2026-05-07 20:09 42.07426 -81.30196 27435 ft 550 kts 41°
2026-05-07 20:10 42.12736 -81.22638 28409 ft 561 kts 41°
2026-05-07 20:10 42.15431 -81.18793 28942 ft 564 kts 41°
2026-05-07 20:10 42.18128 -81.14938 29589 ft 565 kts 40°
2026-05-07 20:10 42.20826 -81.11076 30216 ft 566 kts 40°
2026-05-07 20:11 42.23485 -81.07264 30865 ft 563 kts 40°
2026-05-07 20:11 42.26155 -81.03431 31598 ft 559 kts 40°
2026-05-07 20:11 42.28799 -80.99630 32487 ft 551 kts 41°
2026-05-07 20:11 42.31427 -80.95854 33019 ft 552 kts 41°
2026-05-07 20:12 42.34072 -80.92054 33003 ft 555 kts 41°
2026-05-07 20:12 42.39334 -80.84469 32989 ft 550 kts 41°
2026-05-07 20:13 42.47884 -80.72101 33004 ft 551 kts 41°
2026-05-07 20:13 42.67691 -80.40290 32987 ft 556 kts 45°
2026-05-07 20:14 42.81573 -80.17495 33058 ft 556 kts 46°
2026-05-07 20:14 42.86496 -80.09366 32996 ft 554 kts 46°
2026-05-07 20:15 42.91389 -80.01259 32977 ft 553 kts 46°
2026-05-07 20:15 42.96265 -79.93158 32973 ft 552 kts 46°
2026-05-07 20:16 43.01132 -79.85054 32985 ft 551 kts 46°
2026-05-07 20:16 43.05948 -79.77011 32942 ft 550 kts 46°
2026-05-07 20:17 43.10785 -79.68910 32967 ft 550 kts 46°
2026-05-07 20:17 43.15625 -79.60784 32980 ft 551 kts 46°
2026-05-07 20:18 43.20458 -79.52646 32974 ft 550 kts 47°
2026-05-07 20:18 43.25276 -79.44508 32971 ft 548 kts 47°
2026-05-07 20:19 43.30076 -79.36379 32973 ft 547 kts 47°
2026-05-07 20:19 43.34862 -79.28253 32993 ft 547 kts 47°
2026-05-07 20:20 43.39622 -79.20151 32981 ft 549 kts 47°
2026-05-07 20:20 43.44410 -79.11977 32970 ft 548 kts 47°
2026-05-07 20:21 43.49183 -79.03799 32959 ft 547 kts 47°
2026-05-07 20:21 43.53941 -78.95630 32976 ft 546 kts 47°
2026-05-07 20:22 43.58679 -78.87471 32944 ft 544 kts 47°
2026-05-07 20:22 43.63413 -78.79297 32938 ft 545 kts 47°
2026-05-07 20:23 43.68152 -78.71093 32969 ft 546 kts 48°
2026-05-07 20:23 43.72890 -78.62865 32930 ft 547 kts 48°
2026-05-07 20:24 43.77594 -78.54672 32934 ft 546 kts 48°
2026-05-07 20:24 43.82312 -78.46432 32929 ft 546 kts 48°
2026-05-07 20:25 43.87021 -78.38185 32929 ft 545 kts 48°
2026-05-07 20:25 43.91704 -78.29960 32910 ft 542 kts 48°
2026-05-07 20:26 43.96361 -78.21757 32925 ft 539 kts 48°
2026-05-07 20:26 44.01009 -78.13548 32934 ft 538 kts 49°
2026-05-07 20:27 44.05601 -78.05416 32913 ft 537 kts 49°
2026-05-07 20:27 44.10205 -77.97236 32907 ft 536 kts 49°
2026-05-07 20:28 44.14799 -77.89053 32910 ft 537 kts 49°
2026-05-07 20:28 44.19420 -77.80800 32903 ft 540 kts 49°
2026-05-07 20:29 44.24046 -77.72511 32902 ft 542 kts 49°
2026-05-07 20:29 44.28675 -77.64183 32906 ft 544 kts 50°
2026-05-07 20:30 44.32640 -77.55144 32927 ft 548 kts 62°
2026-05-07 20:30 44.35469 -77.45238 32900 ft 549 kts 72°
2026-05-07 20:31 44.37755 -77.35128 32889 ft 548 kts 72°
2026-05-07 20:31 44.40048 -77.24987 32886 ft 547 kts 72°
2026-05-07 20:32 44.42376 -77.14881 32868 ft 546 kts 72°
2026-05-07 20:32 44.44718 -77.04756 32896 ft 547 kts 72°
2026-05-07 20:33 44.47049 -76.94618 32896 ft 548 kts 72°
2026-05-07 20:33 44.49375 -76.84442 32889 ft 547 kts 72°
2026-05-07 20:34 44.51684 -76.74287 32895 ft 547 kts 72°
2026-05-07 20:34 44.53984 -76.64122 32884 ft 547 kts 72°
2026-05-07 20:35 44.56261 -76.54010 32895 ft 547 kts 72°
2026-05-07 20:35 44.58547 -76.43817 32906 ft 547 kts 72°
2026-05-07 20:36 44.60822 -76.33621 32891 ft 547 kts 72°
2026-05-07 20:36 44.63088 -76.23424 32869 ft 546 kts 72°
2026-05-07 20:37 44.65746 -76.13515 32882 ft 537 kts 66°
2026-05-07 20:37 44.68649 -76.03876 32755 ft 536 kts 66°
2026-05-07 20:37 44.70074 -75.99024 32297 ft 538 kts 67°
2026-05-07 20:38 44.71437 -75.94220 31853 ft 534 kts 68°
2026-05-07 20:38 44.72753 -75.89351 31244 ft 528 kts 69°
2026-05-07 20:38 44.74014 -75.84571 30605 ft 514 kts 69°
2026-05-07 20:38 44.75238 -75.79910 30012 ft 504 kts 69°
2026-05-07 20:39 44.76460 -75.75285 29361 ft 505 kts 68°
2026-05-07 20:39 44.77693 -75.70644 28711 ft 507 kts 68°
2026-05-07 20:39 44.78932 -75.65997 28049 ft 505 kts 68°
2026-05-07 20:39 44.80164 -75.61370 27415 ft 503 kts 68°
2026-05-07 20:40 44.81388 -75.56767 26793 ft 501 kts 68°
2026-05-07 20:40 44.82608 -75.52170 26203 ft 498 kts 68°
2026-05-07 20:40 44.83802 -75.47655 25656 ft 484 kts 68°
2026-05-07 20:40 44.84980 -75.43292 25161 ft 469 kts 67°
2026-05-07 20:41 44.86164 -75.39081 24638 ft 455 kts 66°
2026-05-07 20:41 44.87331 -75.34998 24179 ft 446 kts 66°
2026-05-07 20:41 44.88491 -75.30942 23766 ft 447 kts 66°
2026-05-07 20:41 44.89639 -75.26906 23362 ft 449 kts 66°
2026-05-07 20:42 44.90793 -75.22819 22853 ft 449 kts 66°
2026-05-07 20:42 44.91948 -75.18706 22377 ft 450 kts 66°
2026-05-07 20:42 44.93081 -75.14658 21872 ft 438 kts 66°
2026-05-07 20:42 44.94187 -75.10692 21379 ft 428 kts 66°
2026-05-07 20:43 44.95271 -75.06808 20952 ft 426 kts 66°
2026-05-07 20:43 44.96373 -75.02858 20566 ft 432 kts 66°
2026-05-07 20:43 44.97455 -74.98971 20186 ft 431 kts 66°
2026-05-07 20:43 44.98571 -74.95106 19777 ft 421 kts 63°
2026-05-07 20:44 44.99919 -74.91457 19338 ft 417 kts 57°
2026-05-07 20:44 45.01356 -74.87922 18912 ft 415 kts 57°
2026-05-07 20:44 45.02792 -74.84393 18486 ft 411 kts 57°
2026-05-07 20:44 45.04272 -74.80957 18057 ft 406 kts 51°
2026-05-07 20:45 45.06011 -74.77861 17605 ft 398 kts 42°
2026-05-07 20:45 45.07922 -74.75083 17177 ft 392 kts 41°
2026-05-07 20:45 45.09797 -74.72348 16755 ft 378 kts 41°
2026-05-07 20:45 45.11590 -74.69709 16327 ft 366 kts 41°
2026-05-07 20:46 45.13344 -74.67119 15948 ft 364 kts 41°
2026-05-07 20:46 45.14506 -74.65406 15697 ft 364 kts 41°
2026-05-07 20:46 45.16259 -74.62813 15320 ft 364 kts 42°
2026-05-07 20:46 45.18008 -74.60221 14945 ft 364 kts 42°
2026-05-07 20:47 45.19752 -74.57630 14560 ft 360 kts 42°
2026-05-07 20:47 45.21452 -74.55097 14175 ft 352 kts 42°
2026-05-07 20:47 45.23130 -74.52593 13819 ft 348 kts 42°
2026-05-07 20:47 45.24776 -74.50134 13462 ft 332 kts 42°
2026-05-07 20:48 45.26312 -74.47832 13124 ft 322 kts 42°
2026-05-07 20:48 45.27846 -74.45540 12788 ft 319 kts 42°
2026-05-07 20:48 45.29364 -74.43273 12465 ft 315 kts 42°
2026-05-07 20:48 45.30866 -74.41025 12136 ft 311 kts 42°
2026-05-07 20:49 45.32350 -74.38804 11824 ft 308 kts 42°
2026-05-07 20:49 45.33817 -74.36605 11505 ft 305 kts 42°
2026-05-07 20:49 45.35267 -74.34428 11197 ft 302 kts 42°
2026-05-07 20:49 45.36705 -74.32271 10904 ft 300 kts 42°
2026-05-07 20:50 45.38142 -74.30113 10565 ft 301 kts 42°
2026-05-07 20:50 45.39581 -74.27952 10203 ft 302 kts 42°
2026-05-07 20:50 45.41022 -74.25782 9890 ft 300 kts 43°
2026-05-07 20:50 45.42449 -74.23630 9580 ft 298 kts 42°
2026-05-07 20:51 45.43874 -74.21481 9223 ft 296 kts 42°
2026-05-07 20:51 45.45259 -74.19389 8924 ft 292 kts 42°
2026-05-07 20:51 45.46663 -74.17267 8658 ft 290 kts 42°
2026-05-07 20:51 45.48024 -74.15210 8371 ft 289 kts 42°
2026-05-07 20:52 45.49406 -74.13122 8105 ft 288 kts 43°
2026-05-07 20:52 45.50745 -74.11091 7807 ft 274 kts 42°
2026-05-07 20:52 45.52025 -74.09148 7537 ft 266 kts 42°
2026-05-07 20:52 45.53292 -74.07227 7278 ft 266 kts 42°
2026-05-07 20:53 45.54568 -74.05295 7019 ft 268 kts 43°
2026-05-07 20:53 45.55848 -74.03354 6770 ft 269 kts 42°
2026-05-07 20:53 45.57120 -74.01423 6634 ft 264 kts 42°
2026-05-07 20:53 45.58381 -73.99506 6373 ft 266 kts 42°
2026-05-07 20:54 45.59651 -73.97576 6118 ft 267 kts 43°
2026-05-07 20:54 45.60902 -73.95669 5894 ft 264 kts 43°
2026-05-07 20:54 45.62141 -73.93779 5646 ft 256 kts 42°
2026-05-07 20:54 45.63331 -73.91960 5516 ft 244 kts 42°
2026-05-07 20:55 45.64481 -73.90204 5318 ft 242 kts 42°
2026-05-07 20:55 45.65625 -73.88459 5076 ft 241 kts 42°
2026-05-07 20:55 45.66786 -73.86690 4855 ft 245 kts 42°
2026-05-07 20:55 45.67944 -73.84919 4648 ft 242 kts 42°
2026-05-07 20:56 45.69102 -73.83151 4486 ft 244 kts 42°
2026-05-07 20:56 45.70261 -73.81380 4284 ft 243 kts 42°
2026-05-07 20:56 45.71406 -73.79625 4103 ft 241 kts 43°
2026-05-07 20:56 45.72539 -73.77887 3966 ft 237 kts 42°
2026-05-07 20:57 45.73662 -73.76165 3779 ft 235 kts 42°
2026-05-07 20:57 45.74789 -73.74487 3619 ft 231 kts 35°
2026-05-07 20:57 45.76185 -73.73564 3411 ft 217 kts
2026-05-07 20:57 45.77629 -73.73876 3257 ft 207 kts 333°
2026-05-07 20:58 45.78831 -73.74928 3127 ft 200 kts 314°
2026-05-07 20:58 45.79822 -73.76288 3065 ft 198 kts 310°
2026-05-07 20:58 45.80722 -73.77692 3013 ft 190 kts 299°
2026-05-07 20:58 45.81144 -73.79461 3001 ft 188 kts 276°
2026-05-07 20:59 45.81198 -73.81307 2999 ft 184 kts 270°
2026-05-07 20:59 45.80857 -73.83030 2988 ft 184 kts 237°
2026-05-07 20:59 45.79889 -73.84206 3010 ft 181 kts 222°
2026-05-07 20:59 45.78929 -73.85299 2989 ft 173 kts 226°
2026-05-07 21:00 45.78049 -73.86460 2746 ft 170 kts 230°
2026-05-07 21:00 45.77229 -73.87615 2523 ft 163 kts 230°
2026-05-07 21:00 45.76442 -73.88737 2296 ft 156 kts 231°
2026-05-07 21:00 45.75696 -73.89805 2082 ft 145 kts 232°
2026-05-07 21:01 45.75019 -73.90774 1881 ft 131 kts 231°
2026-05-07 21:01 45.74391 -73.91675 1754 ft 131 kts 230°
2026-05-07 21:01 45.73734 -73.92618 1549 ft 135 kts 231°
2026-05-07 21:01 45.73080 -73.93552 1349 ft 132 kts 231°
2026-05-07 21:02 45.72435 -73.94477 1160 ft 133 kts 230°
2026-05-07 21:02 45.71789 -73.95399 987 ft 131 kts 231°
2026-05-07 21:02 45.71124 -73.96356 795 ft 143 kts 227°
2026-05-07 21:02 45.70403 -73.97377 639 ft 142 kts 229°
2026-05-07 21:03 45.69751 -73.98349 417 ft 129 kts 228°
2026-05-07 21:03 45.69101 -73.99236 281 ft 132 kts 229°
2026-05-07 21:03 45.68495 -74.00124 271 ft 110 kts 223°
2026-05-07 21:03 45.68062 -74.00718 270 ft 42 kts 224°
2026-05-07 21:04 45.67860 -74.01015 274 ft 23 kts 229°
2026-05-07 21:04 45.67784 -74.01199 272 ft 22 kts 249°
2026-05-07 21:04 45.67735 -74.01401 273 ft 22 kts 250°
2026-05-07 21:04 45.67685 -74.01604 274 ft 22 kts 251°
2026-05-07 21:05 45.67636 -74.01808 275 ft 22 kts 249°
2026-05-07 21:05 45.67606 -74.02018 275 ft 22 kts 279°
2026-05-07 21:05 45.67662 -74.02173 275 ft 16 kts 284°
2026-05-07 21:05 45.67598 -74.02301 276 ft 16 kts 225°
2026-05-07 21:06 45.67517 -74.02416 276 ft 16 kts 225°
2026-05-07 21:06 45.67468 -74.02535 277 ft 12 kts 292°
2026-05-07 21:06 45.67526 -74.02619 277 ft 12 kts 290°
2026-05-07 21:06 45.67510 -74.02736 277 ft 12 kts 249°
2026-05-07 21:07 45.67480 -74.02849 278 ft 12 kts 249°
2026-05-07 21:07 45.67451 -74.02963 278 ft 12 kts 250°
2026-05-07 21:07 45.67422 -74.03077 278 ft 12 kts 250°
2026-05-07 21:07 45.67384 -74.03223 278 ft 20 kts 250°
2026-05-07 21:08 45.67334 -74.03419 280 ft 22 kts 250°
2026-05-07 21:08 45.67281 -74.03628 278 ft 23 kts 250°
2026-05-07 21:08 45.67224 -74.03850 278 ft 24 kts 250°
2026-05-07 21:08 45.67165 -74.04082 278 ft 25 kts 250°
2026-05-07 21:09 45.67165 -74.04287 278 ft 17 kts 279°
2026-05-07 21:09 45.67241 -74.04386 277 ft 17 kts
2026-05-07 21:09 45.67367 -74.04365 277 ft 20 kts
2026-05-07 21:09 45.67513 -74.04336 277 ft 22 kts
2026-05-07 21:10 45.67675 -74.04305 277 ft 25 kts
2026-05-07 21:10 45.67856 -74.04268 277 ft 27 kts
2026-05-07 21:10 45.67943 -74.04357 277 ft 15 kts 279°
2026-05-07 21:10 45.67948 -74.04403 277 ft 0 kts 279°